Location: Clair
(33.8067°N, 117.9845°W)
Time: 19:33:05
(UTC+00:00)

Cosmos 2333 Rocket - Visible Passes

Search period start: 18 May 2026 00:00
Search period end: 28 May 2026 00:00
Orbit: 841 x 861 km, 70.8° (Epoch: 18 May)

Date Brightness Start Highest point End Pass type
(mag) Time Alt. Az. Time Alt. Az. Time Alt. Az.
18 May 3.4 04:03:42 10° N 04:08:34 28° ENE 04:11:08 20° E visible
18 May 3.3 05:47:42 10° NW 05:52:47 34° WSW 05:53:09 34° WSW visible
19 May 3.3 03:51:25 10° N 03:56:18 28° ENE 03:59:28 18° ESE visible
19 May 3.3 05:35:27 10° NW 05:40:32 34° WSW 05:41:30 32° SW visible
20 May 3.3 03:39:09 10° N 03:44:02 28° ENE 03:47:52 14° ESE visible
20 May 3.4 05:23:11 10° NW 05:28:16 34° WSW 05:29:54 29° SW visible
21 May 3.3 03:26:54 10° N 03:31:47 28° ENE 03:36:19 11° ESE visible
21 May 3.5 05:10:55 10° NW 05:16:01 34° WSW 05:18:21 25° SW visible
22 May 3.3 03:14:37 10° N 03:19:31 28° ENE 03:24:24 10° ESE visible
22 May 3.5 04:58:39 10° NW 05:03:45 34° WSW 05:06:50 20° SSW visible
23 May 3.5 04:46:24 10° NW 04:51:29 34° WSW 04:55:24 16° SSW visible
24 May 3.6 04:34:07 10° NW 04:39:13 34° WSW 04:44:00 11° SSW visible
25 May 3.6 04:21:51 10° NW 04:26:57 34° WSW 04:32:02 10° SSW visible
26 May 3.7 04:09:35 10° NW 04:14:41 34° WSW 04:19:47 10° SSW visible
27 May 3.7 03:57:19 10° NW 04:02:25 34° WSW 04:07:31 10° SSW visible
